Ambler, AK

2:56 PM AKDT on October 01, 2016 (GMT -0800)
Ambler

Weather History for PAFM - November, 2011

Change the Weather History Date:

Monday, November 28, 2011

  Actual Average Record
Temperature  
Mean Temperature -9 °F -  
Max Temperature -7 °F 5 °F 33 °F (1983)
Min Temperature -11 °F 0 °F -40 °F (1982)
Degree Days  
Heating Degree Days 74    
Moisture  
Dew Point -23 °F    
Average Humidity 52    
Maximum Humidity 64    
Minimum Humidity 45    
Precipitation  
Precipitation 0.00 in - - ()
Sea Level Pressure  
Sea Level Pressure 29.66 in    
Wind  
Wind Speed 9 mph (NE)    
Max Wind Speed 14 mph    
Max Gust Speed 22 mph    
Visibility 10 miles    
Events      
Averages and records for this station are not official NWS values.
T = Trace of Precipitation, MM = Missing Value Source: NWS Daily Summary

Daily Weather History Graph

Daily Weather History Graph

Search for Another Location

Airport or City:

Trip Planner

Search our weather history database for the weather conditions in past years. The results will help you decide how hot, cold, wet, or windy it might be!

Date:

Astronomy

Nov. 28, 2011 Rise Set
Actual Time 11:28 AM AKST 3:09 PM AKST
Civil Twilight 9:57 AM AKST 4:40 PM AKST
Nautical Twilight 8:41 AM AKST 5:56 PM AKST
Astronomical Twilight 7:35 AM AKST 7:02 PM AKST
Moon 2:07 PM AKST (11/28) 7:55 PM AKST (11/28)
Length of Visible Light 6h 43m
Length of Day
3h 40m
Waxing Crescent, 17% of the Moon is Illuminated
Nov 28
Waxing Crescent
Dec 2
First Quarter
Dec 10
Full
Dec 17
Last Quarter
Dec 24
New

Hourly Weather History & Observations

Time (AKST) Temp. Windchill Dew Point Humidity Pressure Visibility Wind Dir Wind Speed Gust Speed Precip Events Conditions
12:16 AM -11.2 °F -27.8 °F -23.8 °F 54% 29.66 in 10.0 mi NNE 8.1 mph - N/A   Clear
12:36 AM -11.2 °F -27.8 °F -22.0 °F 59% 29.66 in 10.0 mi NNE 8.1 mph - N/A   Clear
12:56 AM -11.2 °F -27.8 °F -23.8 °F 54% 29.66 in 10.0 mi NNE 8.1 mph - N/A   Clear
1:16 AM -11.2 °F -26.4 °F -23.8 °F 54% 29.66 in 10.0 mi NNE 6.9 mph - N/A   Clear
1:36 AM -11.2 °F -27.8 °F -22.0 °F 59% 29.66 in 10.0 mi NNE 8.1 mph - N/A   Clear
1:56 AM -11.2 °F -27.8 °F -23.8 °F 54% 29.66 in 10.0 mi NNE 8.1 mph - N/A   Clear
2:16 AM -11.2 °F -27.8 °F -22.0 °F 59% 29.65 in 10.0 mi NNE 8.1 mph - N/A   Clear
2:36 AM -11.2 °F -27.8 °F -23.8 °F 54% 29.65 in 10.0 mi NNE 8.1 mph - N/A   Clear
2:56 AM -11.2 °F -27.8 °F -22.0 °F 59% 29.65 in 10.0 mi NNE 8.1 mph - N/A   Clear
3:16 AM -11.2 °F -27.8 °F -23.8 °F 54% 29.65 in 10.0 mi NNE 8.1 mph - N/A   Clear
3:36 AM -11.2 °F -26.4 °F -23.8 °F 54% 29.64 in 10.0 mi NE 6.9 mph - N/A   Clear
3:56 AM -11.2 °F -27.8 °F -22.0 °F 59% 29.64 in 10.0 mi NNE 8.1 mph - N/A   Clear
4:16 AM -11.2 °F -27.8 °F -23.8 °F 54% 29.64 in 10.0 mi NNE 8.1 mph - N/A   Clear
4:36 AM -11.2 °F -27.8 °F -20.2 °F 64% 29.64 in 10.0 mi NNE 8.1 mph - N/A   Clear
4:56 AM -11.2 °F -27.8 °F -23.8 °F 54% 29.63 in 10.0 mi NE 8.1 mph - N/A   Clear
5:16 AM -9.4 °F -26.8 °F -20.2 °F 59% 29.63 in 10.0 mi NNE 9.2 mph - N/A   Clear
5:36 AM -9.4 °F -26.8 °F -23.8 °F 49% 29.63 in 10.0 mi NNE 9.2 mph 17.3 mph N/A   Clear
5:56 AM -11.2 °F -30.1 °F -23.8 °F 54% 29.63 in 10.0 mi NNE 10.4 mph - N/A   Clear
6:16 AM -11.2 °F -24.8 °F -22.0 °F 59% 29.63 in 10.0 mi NNE 5.8 mph - N/A   Clear
6:36 AM -9.4 °F -24.3 °F -22.0 °F 54% 29.63 in 10.0 mi NE 6.9 mph - N/A   Clear
6:56 AM -9.4 °F -24.3 °F -20.2 °F 59% 29.63 in 10.0 mi NNE 6.9 mph - N/A   Clear
7:16 AM -9.4 °F -25.6 °F -23.8 °F 49% 29.63 in 10.0 mi NE 8.1 mph - N/A   Clear
7:36 AM -9.4 °F -26.8 °F -23.8 °F 49% 29.63 in 10.0 mi NE 9.2 mph - N/A   Clear
7:56 AM -9.4 °F -22.7 °F -23.8 °F 49% 29.63 in 10.0 mi NNE 5.8 mph - N/A   Clear
8:16 AM -9.4 °F -25.6 °F -20.2 °F 59% 29.64 in 10.0 mi NE 8.1 mph - N/A   Clear
8:36 AM -9.4 °F -25.6 °F -23.8 °F 49% 29.64 in 10.0 mi NNE 8.1 mph - N/A   Clear
8:56 AM -9.4 °F -24.3 °F -22.0 °F 54% 29.64 in 10.0 mi NE 6.9 mph - N/A   Clear
9:16 AM -9.4 °F -27.9 °F -23.8 °F 49% 29.64 in 10.0 mi NE 10.4 mph - N/A   Clear
9:36 AM -9.4 °F -27.9 °F -23.8 °F 49% 29.64 in 10.0 mi NE 10.4 mph 18.4 mph N/A   Clear
9:56 AM -9.4 °F -26.8 °F -22.0 °F 54% 29.65 in 10.0 mi NNE 9.2 mph 18.4 mph N/A   Clear
10:16 AM -9.4 °F -28.9 °F -23.8 °F 49% 29.65 in 10.0 mi NNE 11.5 mph 16.1 mph N/A   Clear
10:36 AM -9.4 °F -24.3 °F -22.0 °F 54% 29.66 in 10.0 mi NE 6.9 mph 16.1 mph N/A   Clear
10:56 AM -9.4 °F -27.9 °F -23.8 °F 49% 29.66 in 10.0 mi NE 10.4 mph 16.1 mph N/A   Clear
11:16 AM -9.4 °F -27.9 °F -23.8 °F 49% 29.66 in 10.0 mi NE 10.4 mph - N/A   Clear
11:36 AM -9.4 °F -30.6 °F -23.8 °F 49% 29.67 in 10.0 mi NE 13.8 mph 18.4 mph N/A   Clear
11:56 AM -9.4 °F -27.9 °F -23.8 °F 49% 29.67 in 10.0 mi NNE 10.4 mph 16.1 mph N/A   Clear
12:16 PM -7.6 °F -25.7 °F -23.8 °F 45% 29.67 in 10.0 mi NE 10.4 mph 18.4 mph N/A   Clear
12:36 PM -9.4 °F -27.9 °F -23.8 °F 49% 29.67 in 10.0 mi NE 10.4 mph 18.4 mph N/A   Clear
12:56 PM -9.4 °F -26.8 °F -23.8 °F 49% 29.67 in 10.0 mi NE 9.2 mph 16.1 mph N/A   Clear
1:16 PM -9.4 °F -25.6 °F -23.8 °F 49% 29.67 in 10.0 mi NE 8.1 mph 17.3 mph N/A   Clear
1:36 PM -9.4 °F -28.9 °F -23.8 °F 49% 29.68 in 10.0 mi NE 11.5 mph 16.1 mph N/A   Clear
1:56 PM -9.4 °F -27.9 °F -25.6 °F 45% 29.68 in 10.0 mi NE 10.4 mph 16.1 mph N/A   Clear
2:16 PM -9.4 °F -27.9 °F -22.0 °F 54% 29.68 in 10.0 mi NE 10.4 mph 16.1 mph N/A   Clear
2:36 PM -9.4 °F -28.9 °F -23.8 °F 49% 29.69 in 10.0 mi NE 11.5 mph 19.6 mph N/A   Clear
2:56 PM -9.4 °F -27.9 °F -23.8 °F 49% 29.69 in 10.0 mi NE 10.4 mph 17.3 mph N/A   Clear
3:16 PM -9.4 °F -29.8 °F -23.8 °F 49% 29.68 in 10.0 mi NE 12.7 mph 18.4 mph N/A   Clear
3:36 PM -9.4 °F -27.9 °F -23.8 °F 49% 29.68 in 10.0 mi NE 10.4 mph 19.6 mph N/A   Clear
3:56 PM -9.4 °F -27.9 °F -23.8 °F 49% 29.68 in 10.0 mi NE 10.4 mph 17.3 mph N/A   Clear
4:16 PM -9.4 °F -28.9 °F -23.8 °F 49% 29.69 in 10.0 mi NNE 11.5 mph 20.7 mph N/A   Clear
4:36 PM -9.4 °F -29.8 °F -23.8 °F 49% 29.68 in 10.0 mi NE 12.7 mph 21.9 mph N/A   Clear
4:56 PM -9.4 °F -27.9 °F -25.6 °F 45% 29.69 in 10.0 mi NE 10.4 mph 18.4 mph N/A   Clear
5:16 PM -9.4 °F -28.9 °F -23.8 °F 49% 29.69 in 10.0 mi NE 11.5 mph 20.7 mph N/A   Clear
5:36 PM -9.4 °F -29.8 °F -25.6 °F 45% 29.70 in 10.0 mi NE 12.7 mph 17.3 mph N/A   Clear
5:56 PM -9.4 °F -26.8 °F -23.8 °F 49% 29.71 in 10.0 mi NE 9.2 mph 18.4 mph N/A   Clear
6:16 PM -9.4 °F -27.9 °F -23.8 °F 49% 29.71 in 10.0 mi NNE 10.4 mph 18.4 mph N/A   Partly Cloudy
6:36 PM -9.4 °F -26.8 °F -23.8 °F 49% 29.72 in 10.0 mi NE 9.2 mph 16.1 mph N/A   Clear
6:56 PM -9.4 °F -25.6 °F -25.6 °F 45% 29.72 in 10.0 mi NE 8.1 mph - N/A   Clear
7:16 PM -9.4 °F -26.8 °F -23.8 °F 49% 29.73 in 10.0 mi NNE 9.2 mph 18.4 mph N/A   Partly Cloudy
7:36 PM -9.4 °F -28.9 °F -23.8 °F 49% 29.73 in 10.0 mi NNE 11.5 mph 16.1 mph N/A   Clear
8:16 PM -9.4 °F -25.6 °F -25.6 °F 45% 29.75 in 10.0 mi NNE 8.1 mph - N/A   Partly Cloudy
8:36 PM -9.4 °F -27.9 °F -23.8 °F 49% 29.75 in 10.0 mi NE 10.4 mph - N/A   Clear
8:56 PM -9.4 °F -27.9 °F -23.8 °F 49% 29.76 in 10.0 mi NE 10.4 mph 17.3 mph N/A   Clear
9:16 PM -9.4 °F -27.9 °F -25.6 °F 45% 29.76 in 10.0 mi NE 10.4 mph 16.1 mph N/A   Clear
9:36 PM -9.4 °F -24.3 °F -23.8 °F 49% 29.77 in 10.0 mi NE 6.9 mph - N/A   Scattered Clouds
9:56 PM -9.4 °F -24.3 °F -23.8 °F 49% 29.77 in 10.0 mi NE 6.9 mph - N/A   Mostly Cloudy
10:16 PM -9.4 °F -26.8 °F -23.8 °F 49% 29.78 in 10.0 mi NNE 9.2 mph - N/A   Overcast
10:36 PM -9.4 °F -27.9 °F -23.8 °F 49% 29.79 in 10.0 mi NE 10.4 mph 16.1 mph N/A   Overcast
10:56 PM -9.4 °F -27.9 °F -25.6 °F 45% 29.79 in 10.0 mi NNE 10.4 mph 16.1 mph N/A   Overcast
11:16 PM -9.4 °F -26.8 °F -23.8 °F 49% 29.80 in 10.0 mi NNE 9.2 mph - N/A   Overcast
11:36 PM -9.4 °F -24.3 °F -23.8 °F 49% 29.80 in 10.0 mi NNE 6.9 mph - N/A   Overcast
11:56 PM -9.4 °F -25.6 °F -23.8 °F 49% 29.80 in 10.0 mi NE 8.1 mph - N/A   Mostly Cloudy